World > North America > United States > Illinois

Chicago, Illinois Regional Weather

Lat: 41.88N, Lon: 87.63W
Wx Zone: ILZ014
Warning FLW WEATHER ALERT - (More Info. Click Here) Warning
Feedback

Chicago, IL Regional Weather

Expires:201908241800;;142740
ASUS43 KLOT 241709
RWRIL 

ILLINOIS REGIONAL WEATHER ROUNDUP
NATIONAL WEATHER SERVICE CHICAGO/ROMEOVILLE IL
1200 PM CDT SAT AUG 24 2019

NOTE: "FAIR" INDICATES FEW OR NO CLOUDS BELOW 12,000 FEET WITH NO
SIGNIFICANT WEATHER AND/OR OBSTRUCTIONS TO VISIBILITY.

* THESE STATIONS ARE NOT UNDER NWS QUALITY CONTROL. THEY ALSO MAY NOT
  REPORT WEATHER SUCH AS PRECIPITATION OR FOG.


ILZ005-006-012>014-019>023-241800-
NORTHEAST ILLINOIS
  
CITY           SKY/WX    TMP DP  RH WIND       PRES   REMARKS
CHICAGO-OHARE  FAIR      72  51  47 E14       30.27F                  
CHICAGO-MIDWAY FAIR      73  52  47 E9        30.27F                  
AURORA         PTSUNNY   75  52  44 E10G20    30.26F                  
LANSING*       FAIR      73  52  48 SE9       30.27F                  
JOLIET*        FAIR      74  53  48 E9        30.27F                  
WAUKEGAN       FAIR      71  51  49 SE12G22   30.29F                  
DUPAGE AIRPORT FAIR      74  51  44 E9        30.26F                  
KANKAKEE*      FAIR      73  53  48 E12       30.27F                  
WHEELING       FAIR      73  50  44 SE12      30.29F                  
MORRIS*        FAIR      74  54  49 SE9       30.25F                  
ROMEOVILLE*    FAIR      74  51  43 E7        30.27F                  
NORTHERLY ISL    N/A     70  53  54 E12         N/A                   
$$


SKY/WX - Weather  TMP - Temperature  DP - Dew Point  RH - Relative Humidity
WIND - Wind Direction/Speed PRES - Barometric Pressure VSB - Visibility
WCI - Wind Chill Index E13G22 Wind - East Wind 13 mph/Gusts of 22 mph